TimeCDT,TemperatureF,Dew PointF,Humidity,Sea Level PressureIn,VisibilityMPH,Wind Direction,Wind SpeedMPH,Gust SpeedMPH,PrecipitationIn,Events,Conditions,WindDirDegrees,DateUTC
12:15 AM,66.2,53.6,64,29.95,10.0,SE,4.6,-,N/A,,Overcast,140,2013-04-09 05:15:00
12:35 AM,66.2,55.4,68,29.95,10.0,SE,5.8,-,N/A,,Overcast,130,2013-04-09 05:35:00
12:55 AM,66.2,53.6,64,29.95,10.0,SE,5.8,-,N/A,,Overcast,130,2013-04-09 05:55:00
1:15 AM,66.2,53.6,64,29.95,10.0,ESE,5.8,-,N/A,,Overcast,120,2013-04-09 06:15:00
1:35 AM,66.2,53.6,64,29.95,10.0,East,4.6,-,N/A,,Overcast,100,2013-04-09 06:35:00
1:55 AM,66.2,53.6,64,29.94,10.0,Calm,Calm,-,N/A,,Overcast,0,2013-04-09 06:55:00
2:15 AM,66.2,53.6,64,29.93,10.0,ESE,4.6,-,N/A,,Overcast,110,2013-04-09 07:15:00
2:35 AM,66.2,53.6,64,29.92,10.0,ESE,6.9,-,N/A,,Overcast,110,2013-04-09 07:35:00
2:55 AM,66.2,53.6,64,29.92,10.0,ESE,4.6,-,N/A,,Overcast,110,2013-04-09 07:55:00
3:15 AM,66.2,53.6,64,29.92,10.0,ESE,6.9,-,N/A,,Overcast,120,2013-04-09 08:15:00
3:35 AM,66.2,53.6,64,29.92,10.0,SE,6.9,-,N/A,,Overcast,130,2013-04-09 08:35:00
3:55 AM,66.2,53.6,64,29.92,10.0,SE,5.8,-,N/A,,Overcast,130,2013-04-09 08:55:00
4:15 AM,64.4,53.6,68,29.92,10.0,SE,3.5,-,N/A,,Overcast,140,2013-04-09 09:15:00
4:35 AM,64.4,53.6,68,29.92,10.0,SE,6.9,-,N/A,,Overcast,130,2013-04-09 09:35:00
4:55 AM,64.4,53.6,68,29.93,10.0,SE,6.9,-,N/A,,Overcast,140,2013-04-09 09:55:00
5:15 AM,64.4,53.6,68,29.93,10.0,SSE,6.9,-,N/A,,Mostly Cloudy,150,2013-04-09 10:15:00
5:35 AM,64.4,53.6,68,29.93,10.0,SSE,6.9,-,N/A,,Mostly Cloudy,150,2013-04-09 10:35:00
5:55 AM,62.6,53.6,72,29.93,10.0,SSE,6.9,-,N/A,,Partly Cloudy,150,2013-04-09 10:55:00
6:15 AM,62.6,53.6,72,29.94,10.0,South,8.1,-,N/A,,Scattered Clouds,180,2013-04-09 11:15:00
6:35 AM,62.6,53.6,72,29.95,10.0,SSE,9.2,-,N/A,,Scattered Clouds,160,2013-04-09 11:35:00
6:55 AM,62.6,53.6,72,29.96,10.0,SSE,8.1,-,N/A,,Clear,160,2013-04-09 11:55:00
7:15 AM,62.6,53.6,72,29.97,10.0,South,8.1,-,N/A,,Partly Cloudy,170,2013-04-09 12:15:00
7:35 AM,64.4,55.4,73,29.97,10.0,South,9.2,-,N/A,,Mostly Cloudy,170,2013-04-09 12:35:00
7:55 AM,64.4,55.4,73,29.98,10.0,South,12.7,17.3,N/A,,Mostly Cloudy,180,2013-04-09 12:55:00
8:15 AM,66.2,57.2,73,29.97,10.0,South,16.1,20.7,N/A,,Partly Cloudy,180,2013-04-09 13:15:00
8:35 AM,68.0,57.2,68,29.98,10.0,South,16.1,20.7,N/A,,Clear,180,2013-04-09 13:35:00
8:55 AM,69.8,57.2,64,29.98,10.0,South,15.0,19.6,N/A,,Mostly Cloudy,180,2013-04-09 13:55:00
9:15 AM,69.8,59.0,68,29.98,10.0,South,16.1,24.2,N/A,,Overcast,170,2013-04-09 14:15:00
9:35 AM,71.6,59.0,64,29.98,10.0,South,20.7,26.5,N/A,,Mostly Cloudy,190,2013-04-09 14:35:00
9:55 AM,71.6,60.8,69,29.98,10.0,South,20.7,26.5,N/A,,Mostly Cloudy,190,2013-04-09 14:55:00
10:15 AM,71.6,59.0,64,29.98,10.0,South,18.4,28.8,N/A,,Mostly Cloudy,180,2013-04-09 15:15:00
10:35 AM,73.4,60.8,65,29.99,10.0,South,20.7,26.5,N/A,,Mostly Cloudy,190,2013-04-09 15:35:00
10:55 AM,73.4,60.8,65,29.99,10.0,SSW,24.2,28.8,N/A,,Mostly Cloudy,200,2013-04-09 15:55:00
11:15 AM,73.4,59.0,61,29.98,10.0,SSW,24.2,29.9,N/A,,Overcast,200,2013-04-09 16:15:00
11:35 AM,75.2,60.8,61,29.98,10.0,SSW,23.0,27.6,N/A,,Overcast,200,2013-04-09 16:35:00
11:55 AM,75.2,60.8,61,29.98,10.0,South,21.9,33.4,N/A,,Overcast,190,2013-04-09 16:55:00
12:15 PM,73.4,60.8,65,29.97,10.0,South,20.7,27.6,N/A,,Overcast,180,2013-04-09 17:15:00
12:35 PM,75.2,60.8,61,29.96,6.0,South,19.6,27.6,N/A,,Overcast,190,2013-04-09 17:35:00
12:55 PM,75.2,62.6,65,29.95,10.0,SSW,21.9,27.6,N/A,,Overcast,200,2013-04-09 17:55:00
1:15 PM,77.0,62.6,61,29.94,10.0,SSW,20.7,29.9,N/A,,Overcast,200,2013-04-09 18:15:00
1:35 PM,78.8,60.8,54,29.94,10.0,SSW,23.0,31.1,N/A,,Overcast,210,2013-04-09 18:35:00
1:55 PM,77.0,60.8,57,29.93,10.0,South,23.0,-,N/A,,Overcast,190,2013-04-09 18:55:00
2:15 PM,78.8,60.8,54,29.93,10.0,SSW,21.9,31.1,N/A,,Overcast,200,2013-04-09 19:15:00
2:35 PM,78.8,62.6,57,29.92,10.0,South,23.0,-,N/A,,Overcast,180,2013-04-09 19:35:00
2:55 PM,78.8,60.8,54,29.92,10.0,SSW,18.4,-,N/A,,Overcast,200,2013-04-09 19:55:00
3:15 PM,78.8,60.8,54,29.91,10.0,SSW,21.9,27.6,N/A,,Overcast,200,2013-04-09 20:15:00
3:35 PM,80.6,60.8,51,29.90,10.0,SSW,16.1,24.2,N/A,,Scattered Clouds,200,2013-04-09 20:35:00
3:55 PM,80.6,60.8,51,29.90,10.0,South,19.6,-,N/A,,Scattered Clouds,190,2013-04-09 20:55:00
4:15 PM,80.6,60.8,51,29.89,10.0,South,20.7,-,N/A,,Clear,190,2013-04-09 21:15:00
4:35 PM,80.6,60.8,51,29.89,10.0,South,21.9,27.6,N/A,,Partly Cloudy,190,2013-04-09 21:35:00
4:55 PM,80.6,60.8,51,29.88,10.0,South,17.3,26.5,N/A,,Partly Cloudy,190,2013-04-09 21:55:00
5:15 PM,80.6,60.8,51,29.89,10.0,SSW,21.9,25.3,N/A,,Clear,200,2013-04-09 22:15:00
5:35 PM,78.8,60.8,54,29.89,10.0,South,19.6,26.5,N/A,,Partly Cloudy,180,2013-04-09 22:35:00
5:55 PM,78.8,60.8,54,29.89,10.0,South,19.6,25.3,N/A,,Partly Cloudy,190,2013-04-09 22:55:00
6:15 PM,78.8,60.8,54,29.90,10.0,South,13.8,17.3,N/A,,Partly Cloudy,180,2013-04-09 23:15:00
6:35 PM,77.0,60.8,57,29.90,10.0,SSE,13.8,-,N/A,,Mostly Cloudy,160,2013-04-09 23:35:00
6:55 PM,75.2,59.0,57,29.89,10.0,South,10.4,-,N/A,,Scattered Clouds,170,2013-04-09 23:55:00
7:15 PM,75.2,59.0,57,29.90,10.0,South,9.2,-,N/A,,Clear,170,2013-04-10 00:15:00
7:35 PM,73.4,59.0,61,29.90,10.0,South,12.7,-,N/A,,Clear,170,2013-04-10 00:35:00
7:55 PM,73.4,60.8,65,29.90,10.0,SSE,12.7,18.4,N/A,,Clear,160,2013-04-10 00:55:00
8:15 PM,73.4,60.8,65,29.90,10.0,South,8.1,-,N/A,,Clear,170,2013-04-10 01:15:00
8:35 PM,71.6,60.8,69,29.90,10.0,South,10.4,-,N/A,,Scattered Clouds,170,2013-04-10 01:35:00
8:55 PM,71.6,60.8,69,29.91,10.0,SSE,11.5,17.3,N/A,,Mostly Cloudy,160,2013-04-10 01:55:00
9:15 PM,71.6,60.8,69,29.91,10.0,SSE,12.7,17.3,N/A,,Scattered Clouds,160,2013-04-10 02:15:00
9:55 PM,71.6,60.8,69,29.93,10.0,South,9.2,-,N/A,,Clear,170,2013-04-10 02:55:00
10:35 PM,69.8,60.8,73,29.91,10.0,South,5.8,-,N/A,,Clear,170,2013-04-10 03:35:00
10:55 PM,68.0,60.8,78,29.91,10.0,SSE,5.8,-,N/A,,Clear,150,2013-04-10 03:55:00
11:15 PM,68.0,60.8,78,29.90,10.0,SE,6.9,-,N/A,,Clear,140,2013-04-10 04:15:00
11:35 PM,68.0,60.8,78,29.89,10.0,SSE,8.1,-,N/A,,Clear,150,2013-04-10 04:35:00
11:55 PM,68.0,60.8,78,29.88,10.0,SSE,6.9,-,N/A,,Clear,150,2013-04-10 04:55:00